Home > Weather > Winder > Past weeks

Flag for USA Past Weather in Winder, Georgia, USA — Yesterday and Last 2 Weeks

Now
77 °F

Clear.


Feels Like: 78 °F
Forecast: 74 / 94 °F
Wind: No wind

Location: Winder-Barrow Airport

Current Time: Jul 26, 2016 at 8:13:03 AM

Latest Report: Jul 26, 2016 at 7:35 AM


Visibility: 10 mi

Pressure: 30.10 "Hg

Humidity: 83%

Dew Point: 72 °F

Location of WinderLocation

Past Weather in Winder — Graph

°F

Winder Temperature Yesterday

Maximum temperature yesterday: 97 °F (at 2:35 PM)
Minimum temperature yesterday: 73 °F (at 6:35 AM)
Average temperature yesterday: 85 °F

High & Low Weather Summary for the Past Weeks

 TemperatureHumidityPressure
High97 °F (Jul 14, 3:55 PM)94% (Jul 11, 8:35 PM)30.33 "Hg (Jul 11, 8:35 PM)
Low70 °F (Jul 12, 2:15 AM)28% (Jul 13, 4:15 PM)30.01 "Hg (Jul 15, 6:15 PM)
Average82 °F69%30.14 "Hg
* Reported Jul 11 7:15 AM — Jul 26 7:15 AM, Winder, Weather by CustomWeather, © 2016

Note: Actual official high and low records may vary slightly from our data, if they occured in-between our weather recording intervals... More about our weather records

Advertising

Winder Weather History for the Previous 24 Hours

Scroll right to see more
 ConditionsComfort  
Time TempWeatherWind HumidityBarometerVisibility
7:15 AM
Tue, Jul 26
77 °FClear.5 mph83%30.10 "Hg10 mi
6:35 AM75 °FClear.No wind89%30.08 "Hg10 mi
6:15 AM75 °FClear.3 mph89%30.08 "Hg10 mi
5:55 AM75 °FClear.3 mph83%30.07 "Hg10 mi
5:35 AM77 °FClear.3 mph83%30.06 "Hg10 mi
5:15 AM77 °FClear.No wind83%30.06 "Hg10 mi
4:55 AM77 °FClear.No wind83%30.07 "Hg10 mi
4:35 AM77 °FClear.3 mph83%30.07 "Hg10 mi
4:15 AM77 °FClear.3 mph83%30.08 "Hg10 mi
3:55 AM77 °FClear.No wind83%30.08 "Hg10 mi
3:35 AM77 °FClear.5 mph83%30.08 "Hg10 mi
3:15 AM79 °FClear.No wind79%30.07 "Hg10 mi
2:55 AM79 °FClear.No wind79%30.07 "Hg10 mi
2:35 AM79 °FPassing clouds.No wind79%30.08 "Hg10 mi
2:15 AM81 °FPartly cloudy.3 mph74%30.08 "Hg10 mi
1:55 AM81 °FPartly cloudy.5 mph74%30.09 "Hg10 mi
1:35 AM81 °FPassing clouds.5 mph74%30.08 "Hg10 mi
1:15 AM81 °FClear.5 mph74%30.09 "Hg10 mi
12:55 AM81 °FClear.6 mph70%30.09 "Hg10 mi
12:35 AM82 °FClear.No wind66%30.09 "Hg10 mi
12:15 AM82 °FPassing clouds.5 mph66%30.09 "Hg10 mi
11:55 PM
Mon, Jul 25
82 °FPassing clouds.No wind70%30.09 "Hg10 mi
11:35 PM82 °FClear.3 mph70%30.09 "Hg10 mi
11:15 PM84 °FClear.6 mph62%30.09 "Hg10 mi
10:55 PM84 °FClear.5 mph62%30.08 "Hg10 mi
10:15 PM84 °FPassing clouds.6 mph62%30.08 "Hg10 mi
9:55 PM86 °FPassing clouds.No wind59%30.06 "Hg10 mi
9:35 PM84 °FSunny.3 mph66%30.05 "Hg10 mi
9:15 PM86 °FSunny.3 mph62%30.05 "Hg10 mi
8:55 PM86 °FSunny.3 mph59%30.04 "Hg10 mi
8:35 PM88 °FScattered clouds.No wind55%30.03 "Hg10 mi
8:15 PM88 °FSunny.No wind55%30.03 "Hg10 mi
7:55 PM88 °FSunny.3 mph55%30.03 "Hg10 mi
7:35 PM90 °FSunny.5 mph49%30.02 "Hg10 mi
7:15 PM91 °FSunny.3 mph49%30.01 "Hg10 mi
6:55 PM91 °FScattered clouds.5 mph49%30.01 "Hg10 mi
6:35 PM93 °FSunny.5 mph47%30.01 "Hg10 mi
6:15 PM93 °FSunny.5 mph44%30.01 "Hg10 mi
5:55 PM95 °FSunny.6 mph44%30.01 "Hg10 mi
5:35 PM95 °FSunny.5 mph39%30.01 "Hg10 mi
5:15 PM95 °FSunny.No wind36%30.02 "Hg10 mi
4:55 PM97 °FSunny.No wind34%30.02 "Hg10 mi
4:35 PM97 °FSunny.No wind34%30.02 "Hg10 mi
4:15 PM97 °FSunny.3 mph37%30.03 "Hg10 mi
3:55 PM97 °FSunny.5 mph34%30.03 "Hg10 mi
3:35 PM97 °FSunny.No wind39%30.04 "Hg10 mi
3:15 PM97 °FSunny.3 mph32%30.05 "Hg10 mi
2:55 PM95 °FScattered clouds.5 mph36%30.05 "Hg10 mi
2:35 PM97 °FScattered clouds.No wind39%30.06 "Hg10 mi
2:15 PM95 °FSunny.3 mph41%30.07 "Hg10 mi
1:55 PM93 °FSunny.No wind47%30.08 "Hg10 mi
1:15 PM93 °FSunny.No wind47%30.09 "Hg10 mi
12:55 PM91 °FSunny.No wind46%30.10 "Hg10 mi
12:35 PM91 °FSunny.No wind46%30.10 "Hg10 mi
12:15 PM91 °FSunny.No wind46%30.10 "Hg10 mi
11:55 AM91 °FSunny.No wind49%30.11 "Hg10 mi
11:35 AM91 °FSunny.3 mph52%30.11 "Hg10 mi
11:15 AM90 °FSunny.3 mph52%30.12 "Hg10 mi
10:55 AM90 °FSunny.No wind52%30.12 "Hg10 mi
10:35 AM88 °FSunny.No wind55%30.12 "Hg10 mi
10:15 AM88 °FSunny.No wind59%30.13 "Hg10 mi
9:55 AM88 °FSunny.No wind59%30.13 "Hg10 mi
9:35 AM86 °FSunny.5 mph59%30.14 "Hg10 mi
9:15 AM84 °FSunny.No wind66%30.13 "Hg10 mi
8:55 AM82 °FSunny.No wind70%30.12 "Hg10 mi
8:35 AM81 °FSunny.No wind74%30.12 "Hg10 mi
8:15 AM81 °FSunny.No wind74%30.12 "Hg10 mi
Weather by CustomWeather, © 2016

See weather overviewHow to use our weather pages